Weather History for KJZI - August, 2013

Change the Weather History Date:

Friday, August 16, 2013

  Actual Average (KCHS) Record (KCHS)
Temperature  
Mean Temperature 76 °F 81 °F  
Max Temperature 82 °F 90 °F 99 °F (1954)
Min Temperature 69 °F 73 °F 65 °F (1967)
Degree Days  
Heating Degree Days 0 0  
Month to date heating degree days 0  
Since 1 June heating degree days 1  
Since 1 July heating degree days 0  
Cooling Degree Days 10 16  
Month to date cooling degree days 265  
Year to date cooling degree days 1577  
Since 1 June cooling degree days 1215  
Growing Degree Days 26 (Base 50)    
Moisture  
Dew Point 71 °F    
Average Humidity 88    
Maximum Humidity 100    
Minimum Humidity 74    
Precipitation  
Precipitation 0.00 in 0.23 in 4.69 in (1974)
Month to date precipitation 3.48  
Year to date precipitation 31.97  
Sea Level Pressure  
Sea Level Pressure 30.05 in    
Wind  
Wind Speed 8 mph (NE)    
Max Wind Speed 16 mph    
Max Gust Speed 18 mph    
Visibility 8 miles    
Events Rain    
T = Trace of Precipitation, MM = Missing Value Source: NWS Daily Summary

Daily Weather History Graph

Daily Weather History Graph

Search for Another Location

Airport or City:

Trip Planner

Search our weather history database for the weather conditions in past years. The results will help you decide how hot, cold, wet, or windy it might be!

Date:

Astronomy

Aug. 16, 2013 Rise Set
Actual Time 6:44 AM EDT 8:03 PM EDT
Civil Twilight 6:18 AM EDT 8:29 PM EDT
Nautical Twilight 5:47 AM EDT 9:00 PM EDT
Astronomical Twilight 5:15 AM EDT 9:32 PM EDT
Moon 4:14 PM EDT (8/16) 1:51 AM EDT (8/16)
Length of Visible Light 14h 10m
Length of Day
13h 19m
Waxing Gibbous, 74% of the Moon is Illuminated
Aug 16
Waxing Gibbous
Aug 20
Full
Aug 28
Last Quarter
Sep 5
New
Sep 12
First Quarter

Hourly Weather History & Observations

Time (EDT) Temp. Heat Index Dew Point Humidity Pressure Visibility Wind Dir Wind Speed Gust Speed Precip Events Conditions
12:15 AM 69.8 °F - 69.8 °F 100% 30.08 in 10.0 mi NNE 6.9 mph - 0.00 in   Unknown
12:35 AM 69.8 °F - 68.0 °F 94% 30.07 in 10.0 mi NNE 9.2 mph - 0.00 in   Unknown
12:55 AM 69.8 °F - 68.0 °F 94% 30.06 in 10.0 mi NNE 6.9 mph - 0.00 in   Unknown
1:15 AM 69.8 °F - 68.0 °F 94% 30.06 in 9.0 mi NNE 8.1 mph - 0.00 in   Unknown
1:55 AM 69.8 °F - 66.2 °F 88% 30.06 in 9.0 mi North 6.9 mph - 0.00 in   Unknown
2:15 AM 69.8 °F - 66.2 °F 88% 30.05 in 10.0 mi NNE 6.9 mph - 0.00 in   Unknown
2:35 AM 69.8 °F - 66.2 °F 88% 30.04 in 8.0 mi North 5.8 mph - 0.00 in   Unknown
2:55 AM 69.8 °F - 66.2 °F 88% 30.03 in 8.0 mi NNE 6.9 mph - 0.00 in   Unknown
3:15 AM 69.8 °F - 66.2 °F 88% 30.03 in 7.0 mi NNE 5.8 mph - 0.00 in   Unknown
3:35 AM 69.8 °F - 66.2 °F 88% 30.03 in 7.0 mi NNE 5.8 mph - 0.00 in   Unknown
3:55 AM 69.8 °F - 66.2 °F 88% 30.03 in 8.0 mi NE 8.1 mph - 0.00 in   Unknown
4:15 AM 69.8 °F - 66.2 °F 88% 30.03 in 9.0 mi NNE 8.1 mph - 0.00 in   Unknown
4:35 AM 69.8 °F - 66.2 °F 88% 30.03 in 8.0 mi NE 6.9 mph - 0.00 in   Unknown
4:55 AM 69.8 °F - 66.2 °F 88% 30.03 in 8.0 mi NE 6.9 mph - 0.00 in   Unknown
5:15 AM 69.8 °F - 66.2 °F 88% 30.04 in 6.0 mi NE 6.9 mph - 0.00 in   Mist
5:35 AM 69.8 °F - 68.0 °F 94% 30.04 in 4.0 mi NE 6.9 mph - 0.00 in   Mist
5:55 AM 69.8 °F - 68.0 °F 94% 30.04 in 3.0 mi NNE 6.9 mph - 0.00 in   Mist
6:15 AM 69.8 °F - 68.0 °F 94% 30.05 in 2.5 mi NE 5.8 mph - 0.00 in   Mist
6:35 AM 69.8 °F - 68.0 °F 94% 30.06 in 1.8 mi NNE 8.1 mph - 0.00 in   Mist
6:55 AM 69.8 °F - 68.0 °F 94% 30.06 in 2.0 mi NE 6.9 mph - 0.00 in   Mist
7:15 AM 69.8 °F - 68.0 °F 94% 30.07 in 2.0 mi NNE 6.9 mph - 0.00 in   Mist
7:35 AM 69.8 °F - 68.0 °F 94% 30.06 in 2.5 mi NE 6.9 mph - 0.00 in   Mist
7:55 AM 69.8 °F - 68.0 °F 94% 30.06 in 2.5 mi NE 5.8 mph - 0.00 in   Mist
8:15 AM 69.8 °F - 69.8 °F 100% 30.06 in 2.5 mi NE 8.1 mph - 0.00 in   Light Drizzle
8:35 AM 69.8 °F - 69.8 °F 100% 30.06 in 3.0 mi NNE 4.6 mph - 0.00 in   Mist
8:55 AM 71.6 °F - 69.8 °F 94% 30.06 in 3.0 mi NE 8.1 mph - 0.00 in   Mist
9:15 AM 71.6 °F - 69.8 °F 94% 30.07 in 5.0 mi ENE 8.1 mph - 0.00 in   Mist
9:35 AM 71.6 °F - 69.8 °F 94% 30.06 in 7.0 mi NE 5.8 mph - 0.00 in   Unknown
9:55 AM 73.4 °F - 71.6 °F 94% 30.07 in 7.0 mi ENE 6.9 mph - 0.00 in   Unknown
10:15 AM 73.4 °F - 71.6 °F 94% 30.07 in 6.0 mi NE 6.9 mph - 0.00 in   Mist
10:35 AM 75.2 °F - 71.6 °F 89% 30.07 in 5.0 mi NE 6.9 mph - 0.00 in   Mist
10:55 AM 75.2 °F - 71.6 °F 89% 30.07 in 6.0 mi ENE 8.1 mph - 0.00 in   Mist
11:15 AM 75.2 °F - 71.6 °F 89% 30.07 in 7.0 mi NE 8.1 mph - 0.00 in   Unknown
11:35 AM 77.0 °F - 73.4 °F 89% 30.06 in 8.0 mi ENE 10.4 mph - 0.00 in   Unknown
11:55 AM 78.8 °F - 73.4 °F 83% 30.06 in 9.0 mi ENE 8.1 mph - 0.00 in   Unknown
12:15 PM 80.6 °F 85.4 °F 73.4 °F 79% 30.05 in 10.0 mi ENE 10.4 mph - 0.00 in   Unknown
12:35 PM 80.6 °F 85.4 °F 73.4 °F 79% 30.05 in 10.0 mi East 12.7 mph - 0.00 in   Unknown
12:55 PM 80.6 °F 85.4 °F 73.4 °F 79% 30.05 in 10.0 mi ENE 13.8 mph - 0.00 in   Unknown
1:15 PM 82.4 °F 89.5 °F 75.2 °F 79% 30.04 in 10.0 mi East 13.8 mph - 0.00 in   Unknown
1:35 PM 82.4 °F 89.5 °F 75.2 °F 79% 30.04 in 10.0 mi East 10.4 mph - 0.00 in   Unknown
1:55 PM 82.4 °F 88.2 °F 73.4 °F 74% 30.04 in 10.0 mi East 12.7 mph 18.4 mph 0.00 in   Unknown
2:15 PM 78.8 °F - 73.4 °F 83% 30.03 in 10.0 mi ENE 13.8 mph - 0.00 in   Unknown
2:35 PM 80.6 °F 85.4 °F 73.4 °F 79% 30.03 in 10.0 mi ENE 13.8 mph 18.4 mph 0.00 in   Unknown
2:55 PM 80.6 °F 85.4 °F 73.4 °F 79% 30.02 in 10.0 mi ENE 11.5 mph - 0.00 in   Unknown
3:15 PM 80.6 °F 86.2 °F 75.2 °F 84% 30.02 in 10.0 mi NE 11.5 mph - 0.00 in   Unknown
3:35 PM 80.6 °F 86.2 °F 75.2 °F 84% 30.01 in 10.0 mi ENE 11.5 mph - 0.00 in   Unknown
3:55 PM 80.6 °F 85.4 °F 73.4 °F 79% 30.01 in 10.0 mi ENE 13.8 mph - 0.00 in   Unknown
4:15 PM 80.6 °F 85.4 °F 73.4 °F 79% 30.01 in 10.0 mi ENE 10.4 mph - 0.00 in   Unknown
4:35 PM 78.8 °F - 73.4 °F 83% 30.01 in 10.0 mi NE 16.1 mph - 0.00 in   Unknown
4:55 PM 80.6 °F 85.4 °F 73.4 °F 79% 30.01 in 10.0 mi ENE 15.0 mph - 0.00 in   Unknown
5:15 PM 78.8 °F - 73.4 °F 83% 30.02 in 10.0 mi NNE 10.4 mph - 0.00 in   Unknown
5:35 PM 78.8 °F - 73.4 °F 83% 30.01 in 10.0 mi North 9.2 mph - 0.00 in   Unknown
5:55 PM 78.8 °F - 73.4 °F 83% 30.02 in 10.0 mi NNE 10.4 mph - 0.00 in   Unknown
6:15 PM 77.0 °F - 71.6 °F 83% 30.03 in 10.0 mi NNE 9.2 mph - 0.00 in   Unknown
6:35 PM 77.0 °F - 71.6 °F 83% 30.03 in 10.0 mi NNE 8.1 mph - 0.00 in   Unknown
6:55 PM 77.0 °F - 71.6 °F 83% 30.03 in 10.0 mi NNE 8.1 mph - 0.00 in   Unknown
7:15 PM 77.0 °F - 71.6 °F 83% 30.04 in 10.0 mi NNE 8.1 mph - 0.00 in   Unknown
7:35 PM 75.2 °F - 71.6 °F 89% 30.04 in 10.0 mi NE 6.9 mph - 0.00 in   Unknown
7:55 PM 75.2 °F - 71.6 °F 89% 30.04 in 10.0 mi NNE 8.1 mph - 0.00 in   Unknown
8:15 PM 75.2 °F - 71.6 °F 89% 30.05 in 10.0 mi NE 6.9 mph - 0.00 in   Light Drizzle
8:35 PM 75.2 °F - 71.6 °F 89% 30.05 in 10.0 mi NE 9.2 mph - 0.00 in   Light Drizzle
8:55 PM 75.2 °F - 71.6 °F 89% 30.06 in 10.0 mi ENE 8.1 mph - 0.00 in   Light Drizzle
9:15 PM 73.4 °F - 71.6 °F 94% 30.07 in 10.0 mi ENE 8.1 mph - 0.00 in   Unknown
9:35 PM 73.4 °F - 71.6 °F 94% 30.08 in 10.0 mi NE 5.8 mph - 0.00 in Rain Light Rain
9:55 PM 73.4 °F - 71.6 °F 94% 30.08 in 8.0 mi NE 10.4 mph - 0.00 in Rain Light Rain
10:15 PM 73.4 °F - 71.6 °F 94% 30.09 in 10.0 mi NE 6.9 mph - 0.00 in   Light Drizzle
10:35 PM 73.4 °F - 71.6 °F 94% 30.08 in 8.0 mi NE 6.9 mph - 0.00 in Rain Light Rain
10:55 PM 73.4 °F - 71.6 °F 94% 30.07 in 5.0 mi NNE 6.9 mph - 0.00 in Rain Light Rain
11:15 PM 73.4 °F - 71.6 °F 94% 30.07 in 5.0 mi NNE 5.8 mph - 0.00 in Rain Light Rain
11:35 PM 73.4 °F - 71.6 °F 94% 30.07 in 9.0 mi NNE 5.8 mph - 0.00 in Rain Light Rain
11:55 PM 73.4 °F - 71.6 °F 94% 30.06 in 4.0 mi NNE 5.8 mph - 0.00 in Rain Light Rain